Russellville, AR

5:38 PM CST on December 04, 2016 (GMT -0600)
Russellville Regional

Weather History for KRUE - June, 2014

Change the Weather History Date:

Saturday, June 7, 2014

  Actual Average (KHOT) Record (KHOT)
Temperature  
Mean Temperature 77 °F -  
Max Temperature 89 °F 85 °F 100 °F (1977)
Min Temperature 66 °F 62 °F 51 °F (1998)
Cooling Degree Days 12    
Growing Degree Days 27 (Base 50)    
Moisture  
Dew Point 68 °F    
Average Humidity 85    
Maximum Humidity 97    
Minimum Humidity 55    
Precipitation  
Precipitation 0.02 in - - ()
Sea Level Pressure  
Sea Level Pressure 29.90 in    
Wind  
Wind Speed 1 mph (WSW)    
Max Wind Speed 10 mph    
Max Gust Speed 18 mph    
Visibility 7 miles    
Events Fog , Rain , Thunderstorm    
Averages and records for this station are not official NWS values.
T = Trace of Precipitation, MM = Missing Value Source: NWS Daily Summary

Daily Weather History Graph

Daily Weather History Graph

Search for Another Location

Airport or City:

Trip Planner

Search our weather history database for the weather conditions in past years. The results will help you decide how hot, cold, wet, or windy it might be!

Date:

Astronomy

Jun. 07, 2014 Rise Set
Actual Time 5:57 AM CDT 8:25 PM CDT
Civil Twilight 5:27 AM CDT 8:54 PM CDT
Nautical Twilight 4:51 AM CDT 9:31 PM CDT
Astronomical Twilight 4:11 AM CDT 10:11 PM CDT
Moon 2:54 PM CDT (6/7) 2:07 AM CDT (6/7)
Length of Visible Light 15h 26m
Length of Day
14h 27m
Waxing Gibbous, 68% of the Moon is Illuminated
Jun 7
Waxing Gibbous
Jun 12
Full
Jun 19
Last Quarter
Jun 27
New
Jul 5
First Quarter

Hourly Weather History & Observations

Time (CDT) Temp. Heat Index Dew Point Humidity Pressure Visibility Wind Dir Wind Speed Gust Speed Precip Events Conditions
12:53 AM 68.0 °F - 66.0 °F 93% 29.92 in 10.0 mi Calm Calm - N/A   Clear
1:53 AM 68.0 °F - 66.0 °F 93% 29.93 in 7.0 mi Calm Calm - N/A   Clear
2:53 AM 66.9 °F - 66.0 °F 97% 29.94 in 5.0 mi Calm Calm - N/A   Partly Cloudy
3:53 AM 68.0 °F - 66.0 °F 93% 29.92 in 6.0 mi Calm Calm - N/A   Clear
4:10 AM 68.0 °F - 66.2 °F 94% 29.93 in 6.0 mi Calm Calm - N/A   Scattered Clouds
4:20 AM 68.0 °F - 66.2 °F 94% 29.94 in 2.5 mi Calm Calm - N/A   Mostly Cloudy
4:27 AM 68.0 °F - 66.2 °F 94% 29.94 in 0.8 mi Calm Calm - N/A   Mostly Cloudy
4:53 AM 68.0 °F - 66.9 °F 96% 29.91 in 0.2 mi Calm Calm - N/A Fog Fog
5:07 AM 68.0 °F - 66.2 °F 94% 29.93 in 1.8 mi Calm Calm - N/A   Overcast
5:11 AM 68.0 °F - 66.2 °F 94% 29.93 in 3.0 mi Calm Calm - N/A   Overcast
5:25 AM 68.0 °F - 66.2 °F 94% 29.93 in 1.8 mi Calm Calm - N/A   Overcast
5:40 AM 68.0 °F - 66.2 °F 94% 29.92 in 2.5 mi Calm Calm - N/A   Overcast
5:53 AM 68.0 °F - 66.9 °F 96% 29.90 in 1.8 mi Calm Calm - N/A   Overcast
6:08 AM 68.0 °F - 66.2 °F 94% 29.92 in 3.0 mi Calm Calm - N/A   Overcast
6:27 AM 68.0 °F - 66.2 °F 94% 29.90 in 1.8 mi Calm Calm - N/A   Overcast
7:38 AM 71.6 °F - 69.8 °F 94% 29.90 in 10.0 mi Calm Calm - N/A   Scattered Clouds
8:53 AM 75.9 °F - 70.0 °F 82% 29.92 in 10.0 mi West 3.5 mph - N/A   Clear
9:53 AM 79.0 °F - 72.0 °F 79% 29.91 in 10.0 mi Variable 4.6 mph - N/A   Mostly Cloudy
10:53 AM 84.0 °F 89.6 °F 72.0 °F 67% 29.89 in 10.0 mi Variable 4.6 mph - N/A   Clear
11:53 AM 86.0 °F 91.5 °F 71.1 °F 61% 29.88 in 10.0 mi SSW 10.4 mph - N/A   Clear
12:53 PM 88.0 °F 92.9 °F 70.0 °F 55% 29.86 in 10.0 mi SW 8.1 mph 18.4 mph N/A   Partly Cloudy
1:53 PM 88.0 °F 92.9 °F 70.0 °F 55% 29.85 in 10.0 mi SW 8.1 mph - N/A   Mostly Cloudy
2:53 PM 86.0 °F 91.5 °F 71.1 °F 61% 29.83 in 10.0 mi SW 5.8 mph - N/A   Mostly Cloudy
3:00 PM 87.8 °F 92.6 °F 69.8 °F 55% 29.85 in 10.0 mi SW 5.8 mph - N/A Thunderstorm Mostly Cloudy
3:53 PM 82.0 °F 86.7 °F 72.0 °F 71% 29.85 in 10.0 mi WNW 10.4 mph - N/A Rain , Thunderstorm Light Rain
4:43 PM 75.2 °F - 68.0 °F 78% 29.89 in 10.0 mi Variable 3.5 mph - 0.00 in Rain , Thunderstorm Light Rain
4:53 PM 75.0 °F - 68.0 °F 79% 29.87 in 10.0 mi NW 5.8 mph - 0.00 in Rain , Thunderstorm Light Rain
5:38 PM 73.4 °F - 68.0 °F 83% 29.90 in 10.0 mi Calm Calm - 0.02 in   Scattered Clouds
5:53 PM 72.0 °F - 68.0 °F 87% 29.87 in 10.0 mi Calm Calm - 0.02 in   Scattered Clouds
6:53 PM 72.0 °F - 68.0 °F 87% 29.85 in 10.0 mi Calm Calm - N/A   Clear
7:53 PM 75.0 °F - 69.1 °F 82% 29.85 in 10.0 mi Calm Calm - N/A   Clear
8:53 PM 71.1 °F - 69.1 °F 93% 29.87 in 10.0 mi Calm Calm - N/A   Clear
9:53 PM 70.0 °F - 68.0 °F 93% 29.88 in 10.0 mi Calm Calm - N/A   Clear
10:53 PM 70.0 °F - 68.0 °F 93% 29.91 in 10.0 mi Calm Calm - N/A   Clear
11:53 PM 69.1 °F - 66.9 °F 93% 29.89 in 10.0 mi Calm Calm - N/A   Clear